Weather History for Mora, MN

Change the Weather History Date:

Sunday, September 15, 2013

  Actual Average Record
Temperature  
Mean Temperature 52 °F -  
Max Temperature 62 °F 68 °F 92 °F (1939)
Min Temperature 39 °F 43 °F 21 °F (1984)
Degree Days  
Heating Degree Days 14    
Growing Degree Days 2 (Base 50)    
Moisture  
Dew Point 48 °F    
Average Humidity 84    
Maximum Humidity 100    
Minimum Humidity 59    
Precipitation  
Precipitation 0.05 in - - ()
Sea Level Pressure  
Sea Level Pressure 30.14 in    
Wind  
Wind Speed 1 mph (NE)    
Max Wind Speed 9 mph    
Max Gust Speed 16 mph    
Visibility 9 miles    
Events Rain    
Averages and records for this station are not official NWS values.
T = Trace of Precipitation, MM = Missing Value Source: NWS Daily Summary

Daily Weather History Graph

Daily Weather History Graph

Search for Another Location

Airport:

Trip Planner

Search our weather history database for the weather conditions in past years. The results will help you decide how hot, cold, wet, or windy it might be!

Date:

Astronomy

Sep. 15, 2013 Rise Set
Actual Time 6:51 AM CDT 7:23 PM CDT
Civil Twilight 6:21 AM CDT 7:53 PM CDT
Nautical Twilight 5:46 AM CDT 8:29 PM CDT
Astronomical Twilight 5:09 AM CDT 9:05 PM CDT
Moon 5:00 PM CDT (9/15) 2:19 AM CDT (9/15)
Length of Visible Light 13h 32m
Length of Day
12h 32m
Waxing Gibbous, 82% of the Moon is Illuminated
Sep 15
Waxing Gibbous
Sep 19
Full
Sep 26
Last Quarter
Oct 4
New
Oct 11
First Quarter

Hourly Weather History & Observations

Time (CDT) Temp. Dew Point Humidity Pressure Visibility Wind Dir Wind Speed Gust Speed Precip Events Conditions
12:15 AM 51.8 °F 50.0 °F 94% 29.96 in 10.0 mi Calm Calm - 0.01 in Rain Light Rain
12:34 AM 53.6 °F 51.8 °F 94% 29.96 in 10.0 mi Calm Calm - 0.02 in Rain Rain
12:55 AM 51.8 °F 50.0 °F 94% 29.95 in 10.0 mi Calm Calm - 0.02 in Rain Rain
1:15 AM 51.8 °F 50.0 °F 94% 29.95 in 10.0 mi Calm Calm - 0.01 in Rain Rain
1:35 AM 51.8 °F 50.0 °F 94% 29.94 in 10.0 mi Calm Calm - 0.01 in Rain Rain
1:55 AM 53.6 °F 51.8 °F 94% 29.95 in 10.0 mi Calm Calm - 0.02 in Rain Rain
2:14 AM 53.6 °F 51.8 °F 94% 29.94 in 10.0 mi Calm Calm - N/A   Light Drizzle
2:35 AM 53.6 °F 51.8 °F 94% 29.94 in 10.0 mi Calm Calm - N/A   Light Drizzle
2:54 AM 53.6 °F 51.8 °F 94% 29.95 in 10.0 mi Calm Calm - N/A   Light Drizzle
3:15 AM 53.6 °F 51.8 °F 94% 29.97 in 10.0 mi Calm Calm - N/A   Overcast
3:35 AM 53.6 °F 51.8 °F 94% 29.97 in 7.0 mi Calm Calm - N/A   Drizzle
3:55 AM 53.6 °F 51.8 °F 94% 29.98 in 3.0 mi Calm Calm - N/A   Drizzle
4:15 AM 53.6 °F 51.8 °F 94% 29.97 in 3.0 mi Calm Calm - 0.01 in   Light Drizzle
4:35 AM 51.8 °F 50.0 °F 94% 29.97 in 5.0 mi Calm Calm - 0.01 in   Overcast
4:55 AM 53.6 °F 51.8 °F 94% 29.98 in 10.0 mi Calm Calm - 0.01 in   Overcast
5:15 AM 53.6 °F 51.8 °F 94% 29.99 in 10.0 mi Calm Calm - N/A   Overcast
5:34 AM 53.6 °F 51.8 °F 94% 29.99 in 10.0 mi Calm Calm - N/A   Overcast
5:55 AM 53.6 °F 51.8 °F 94% 30.00 in 10.0 mi Calm Calm - N/A   Overcast
6:14 AM 53.6 °F 51.8 °F 94% 30.01 in 10.0 mi Calm Calm - N/A   Overcast
6:35 AM 53.6 °F 51.8 °F 94% 30.01 in 10.0 mi Calm Calm - N/A   Overcast
6:55 AM 51.8 °F 50.0 °F 94% 30.02 in 10.0 mi Calm Calm - N/A   Overcast
7:15 AM - - N/A% 30.03 in - Calm Calm - N/A   Unknown
7:35 AM 53.6 °F 51.8 °F 94% 30.04 in 10.0 mi Calm Calm - N/A   Overcast
7:55 AM 53.6 °F 51.8 °F 94% 30.05 in 10.0 mi Calm Calm - N/A   Overcast
8:15 AM 53.6 °F 51.8 °F 94% 30.05 in 10.0 mi Calm Calm - N/A   Overcast
8:35 AM 53.6 °F 51.8 °F 94% 30.06 in 10.0 mi Calm Calm - N/A   Overcast
8:55 AM 53.6 °F 51.8 °F 94% 30.07 in 10.0 mi Calm Calm - N/A   Overcast
9:14 AM 53.6 °F 51.8 °F 94% 30.08 in 2.0 mi Calm Calm - N/A Rain Rain
9:35 AM 53.6 °F 51.8 °F 94% 30.09 in 4.0 mi North 4.6 mph - N/A   Overcast
9:54 AM 53.6 °F 51.8 °F 94% 30.10 in 3.0 mi NNE 5.8 mph - N/A   Overcast
10:15 AM 53.6 °F 51.8 °F 94% 30.11 in 10.0 mi NNE 3.5 mph - N/A   Overcast
10:35 AM 55.4 °F 53.6 °F 94% 30.12 in 10.0 mi NNE 5.8 mph - N/A   Overcast
10:55 AM 55.4 °F 51.8 °F 88% 30.13 in 7.0 mi Calm Calm - N/A   Overcast
11:14 AM 55.4 °F 51.8 °F 88% 30.14 in 10.0 mi NNE 3.5 mph - N/A   Overcast
11:35 AM 55.4 °F 51.8 °F 88% 30.15 in 10.0 mi NE 4.6 mph - N/A   Overcast
11:55 AM 57.2 °F 51.8 °F 82% 30.16 in 10.0 mi ENE 5.8 mph 16.1 mph N/A   Overcast
12:14 PM 60.8 °F 51.8 °F 72% 30.16 in 10.0 mi NE 5.8 mph - N/A   Overcast
12:35 PM 59.0 °F 50.0 °F 72% 30.17 in 10.0 mi ENE 9.2 mph 16.1 mph N/A   Mostly Cloudy
12:54 PM 62.6 °F 51.8 °F 68% 30.17 in 10.0 mi ENE 9.2 mph - N/A   Mostly Cloudy
1:15 PM 59.0 °F 50.0 °F 72% 30.18 in 10.0 mi NE 3.5 mph - N/A   Overcast
1:35 PM 59.0 °F 48.2 °F 67% 30.19 in 10.0 mi ENE 9.2 mph - N/A   Overcast
1:55 PM 59.0 °F 48.2 °F 67% 30.20 in 10.0 mi NE 6.9 mph - N/A   Overcast
2:14 PM 59.0 °F 48.2 °F 67% 30.20 in 10.0 mi NE 4.6 mph - N/A   Overcast
2:35 PM 59.0 °F 46.4 °F 63% 30.21 in 10.0 mi NE 5.8 mph - N/A   Overcast
2:55 PM 60.8 °F 48.2 °F 63% 30.22 in 10.0 mi Calm Calm - N/A   Overcast
3:14 PM 59.0 °F 48.2 °F 67% 30.22 in 10.0 mi NE 6.9 mph - N/A   Overcast
3:35 PM 60.8 °F 46.4 °F 59% 30.22 in 10.0 mi Calm Calm - N/A   Mostly Cloudy
3:54 PM 59.0 °F 46.4 °F 63% 30.23 in 10.0 mi NNE 4.6 mph - N/A   Mostly Cloudy
4:15 PM 59.0 °F 46.4 °F 63% 30.24 in 10.0 mi NNE 6.9 mph - N/A   Scattered Clouds
4:34 PM 59.0 °F 46.4 °F 63% 30.24 in 10.0 mi NNE 4.6 mph - N/A   Scattered Clouds
4:54 PM 59.0 °F 46.4 °F 63% 30.25 in 10.0 mi NE 9.2 mph - N/A   Overcast
5:15 PM 57.2 °F 46.4 °F 67% 30.26 in 10.0 mi NNE 6.9 mph - N/A   Overcast
5:34 PM 55.4 °F 46.4 °F 72% 30.27 in 10.0 mi NE 4.6 mph - N/A   Overcast
5:54 PM 55.4 °F 44.6 °F 67% 30.27 in 10.0 mi ENE 5.8 mph - N/A   Mostly Cloudy
6:15 PM 55.4 °F 44.6 °F 67% 30.27 in 10.0 mi NNE 3.5 mph - N/A   Clear
6:34 PM 55.4 °F 44.6 °F 67% 30.27 in 10.0 mi Calm Calm - N/A   Clear
6:54 PM 55.4 °F 44.6 °F 67% 30.27 in 10.0 mi East 4.6 mph - N/A   Scattered Clouds
7:15 PM 53.6 °F 44.6 °F 72% 30.28 in 10.0 mi ENE 3.5 mph - N/A   Scattered Clouds
7:34 PM 51.8 °F 44.6 °F 76% 30.28 in 10.0 mi Calm Calm - N/A   Clear
7:55 PM 50.0 °F 44.6 °F 82% 30.29 in 10.0 mi Calm Calm - N/A   Clear
8:15 PM 50.0 °F 44.6 °F 82% 30.30 in 10.0 mi Calm Calm - N/A   Scattered Clouds
8:34 PM 50.0 °F 44.6 °F 82% 30.31 in 10.0 mi Calm Calm - N/A   Clear
8:55 PM 48.2 °F 44.6 °F 87% 30.31 in 10.0 mi Calm Calm - N/A   Clear
9:15 PM 44.6 °F 42.8 °F 93% 30.32 in 10.0 mi Calm Calm - N/A   Clear
9:34 PM 44.6 °F 42.8 °F 93% 30.33 in 10.0 mi Calm Calm - N/A   Clear
9:54 PM 44.6 °F 42.8 °F 93% 30.33 in 10.0 mi Calm Calm - N/A   Clear
10:15 PM 44.6 °F 42.8 °F 93% 30.33 in 10.0 mi Calm Calm - N/A   Clear
10:35 PM 44.6 °F 42.8 °F 93% 30.34 in 10.0 mi Calm Calm - N/A   Clear
10:54 PM 42.8 °F 41.0 °F 93% 30.34 in 7.0 mi Calm Calm - N/A   Clear
11:15 PM 41.0 °F 41.0 °F 100% 30.34 in 10.0 mi Calm Calm - N/A   Clear
11:34 PM 41.0 °F 37.4 °F 87% 30.35 in 7.0 mi Calm Calm - N/A   Clear
11:55 PM 39.2 °F 37.4 °F 93% 30.36 in 7.0 mi Calm Calm - N/A   Clear